Time,TemperatureF,DewpointF,PressureIn,WindDirection,WindDirectionDegrees,WindSpeedMPH,WindSpeedGustMPH,Humidity,HourlyPrecipIn,Conditions,Clouds,dailyrainin,SoftwareType,DateUTC
2013-01-11 00:03:00,48.9,28.0,31.31,NNW,333,4.0,8.0,44,0.00,,,0.00,VWS V14.01,2013-01-11 08:03:00,
2013-01-11 00:08:00,48.7,28.3,31.31,NW,317,5.0,8.0,45,0.00,,,0.00,VWS V14.01,2013-01-11 08:08:00,
2013-01-11 00:13:00,48.6,27.7,31.31,North,349,10.0,11.0,44,0.00,,,0.00,VWS V14.01,2013-01-11 08:13:00,
2013-01-11 00:18:00,48.8,27.9,31.31,NW,315,4.0,11.0,44,0.00,,,0.00,VWS V14.01,2013-01-11 08:18:00,
2013-01-11 00:23:00,48.8,27.9,31.31,NW,318,4.0,11.0,44,0.00,,,0.00,VWS V14.01,2013-01-11 08:23:00,
2013-01-11 00:28:00,48.3,27.4,31.31,NNW,329,4.0,11.0,44,0.00,,,0.00,VWS V14.01,2013-01-11 08:28:00,
2013-01-11 00:33:00,47.8,27.5,31.31,NNW,337,5.0,8.0,45,0.00,,,0.00,VWS V14.01,2013-01-11 08:33:00,
2013-01-11 00:38:00,47.8,27.5,31.31,NNW,348,5.0,10.0,45,0.00,,,0.00,VWS V14.01,2013-01-11 08:38:00,
2013-01-11 00:43:00,47.9,27.0,31.31,NW,321,5.0,10.0,44,0.00,,,0.00,VWS V14.01,2013-01-11 08:43:00,
2013-01-11 00:48:00,48.0,27.1,31.31,WNW,286,2.0,10.0,44,0.00,,,0.00,VWS V14.01,2013-01-11 08:48:00,
2013-01-11 00:53:00,47.6,27.3,31.31,WNW,300,1.0,10.0,45,0.00,,,0.00,VWS V14.01,2013-01-11 08:53:00,
2013-01-11 00:58:00,47.2,27.0,31.31,WSW,256,0.0,10.0,45,0.00,,,0.00,VWS V14.01,2013-01-11 08:58:00,
2013-01-11 01:03:00,46.9,27.2,31.31,West,273,2.0,4.0,46,0.00,,,0.00,VWS V14.01,2013-01-11 09:03:00,
2013-01-11 01:08:00,46.7,27.0,31.31,West,273,0.0,4.0,46,0.00,,,0.00,VWS V14.01,2013-01-11 09:08:00,
2013-01-11 01:13:00,46.5,26.9,31.31,WNW,284,3.0,4.0,46,0.00,,,0.00,VWS V14.01,2013-01-11 09:13:00,
2013-01-11 01:18:00,46.4,27.3,31.31,WNW,287,2.0,4.0,47,0.00,,,0.00,VWS V14.01,2013-01-11 09:18:00,
2013-01-11 01:23:00,46.4,27.3,31.31,WNW,285,1.0,4.0,47,0.00,,,0.00,VWS V14.01,2013-01-11 09:23:00,
2013-01-11 01:28:00,46.2,27.1,31.31,WNW,284,0.0,4.0,47,0.00,,,0.00,VWS V14.01,2013-01-11 09:28:00,
2013-01-11 01:33:00,45.8,27.2,31.31,WNW,286,2.0,2.0,48,0.00,,,0.00,VWS V14.01,2013-01-11 09:33:00,
2013-01-11 01:38:00,45.4,27.4,31.31,WNW,290,1.0,3.0,49,0.00,,,0.00,VWS V14.01,2013-01-11 09:38:00,
2013-01-11 01:43:00,44.9,27.4,31.31,NW,304,2.0,4.0,50,0.00,,,0.00,VWS V14.01,2013-01-11 09:43:00,
2013-01-11 01:48:00,44.3,26.9,31.31,NW,304,3.0,4.0,50,0.00,,,0.00,VWS V14.01,2013-01-11 09:48:00,
2013-01-11 01:53:00,44.2,26.8,31.31,NW,307,2.0,4.0,50,0.00,,,0.00,VWS V14.01,2013-01-11 09:53:00,
2013-01-11 01:58:00,44.3,27.3,31.31,NW,309,6.0,7.0,51,0.00,,,0.00,VWS V14.01,2013-01-11 09:58:00,
2013-01-11 02:03:00,45.0,27.0,31.31,NW,323,3.0,6.0,49,0.00,,,0.00,VWS V14.01,2013-01-11 10:03:00,
2013-01-11 02:08:00,45.0,27.0,31.31,NW,313,2.0,6.0,49,0.00,,,0.00,VWS V14.01,2013-01-11 10:08:00,
2013-01-11 02:13:00,45.1,26.6,31.31,NW,318,2.0,6.0,48,0.00,,,0.00,VWS V14.01,2013-01-11 10:13:00,
2013-01-11 02:18:00,45.0,27.0,31.31,NW,318,2.0,6.0,49,0.00,,,0.00,VWS V14.01,2013-01-11 10:18:00,
2013-01-11 02:23:00,45.0,27.0,31.31,NW,317,2.0,6.0,49,0.00,,,0.00,VWS V14.01,2013-01-11 10:23:00,
2013-01-11 02:28:00,44.9,26.9,31.31,NW,313,2.0,6.0,49,0.00,,,0.00,VWS V14.01,2013-01-11 10:28:00,
2013-01-11 02:33:00,44.6,26.6,31.31,NW,313,2.0,3.0,49,0.00,,,0.00,VWS V14.01,2013-01-11 10:33:00,
2013-01-11 02:38:00,44.3,26.9,31.31,NW,313,0.0,4.0,50,0.00,,,0.00,VWS V14.01,2013-01-11 10:38:00,
2013-01-11 02:43:00,43.9,26.5,31.31,NW,313,3.0,4.0,50,0.00,,,0.00,VWS V14.01,2013-01-11 10:43:00,
2013-01-11 02:48:00,43.8,26.4,31.31,NW,313,2.0,4.0,50,0.00,,,0.00,VWS V14.01,2013-01-11 10:48:00,
2013-01-11 02:53:00,43.9,26.5,31.31,NW,313,0.0,4.0,50,0.00,,,0.00,VWS V14.01,2013-01-11 10:53:00,
2013-01-11 02:58:00,43.9,27.0,28.77,NW,313,0.0,4.0,51,0.00,,,0.00,VWS V14.01,2013-01-11 10:58:00,
2013-01-11 03:03:00,43.4,27.9,28.77,NE,45,0.0,3.0,54,0.00,,,0.00,VWS V14.01,2013-01-11 11:03:00,
2013-01-11 03:08:00,42.9,28.3,28.77,NE,51,0.0,3.0,56,0.00,,,0.00,VWS V14.01,2013-01-11 11:08:00,
2013-01-11 03:13:00,42.5,27.9,28.77,NE,51,0.0,3.0,56,0.00,,,0.00,VWS V14.01,2013-01-11 11:13:00,
2013-01-11 03:18:00,41.9,28.2,28.77,NE,51,0.0,3.0,58,0.00,,,0.00,VWS V14.01,2013-01-11 11:18:00,
2013-01-11 03:23:00,41.2,28.0,28.77,NE,51,1.0,3.0,59,0.00,,,0.00,VWS V14.01,2013-01-11 11:23:00,
2013-01-11 03:28:00,40.5,27.3,28.77,NE,52,2.0,4.0,59,0.00,,,0.00,VWS V14.01,2013-01-11 11:28:00,
2013-01-11 03:33:00,40.2,27.4,28.77,NE,46,2.0,4.0,60,0.00,,,0.00,VWS V14.01,2013-01-11 11:33:00,
2013-01-11 03:38:00,40.1,27.4,28.77,NE,46,0.0,4.0,60,0.00,,,0.00,VWS V14.01,2013-01-11 11:38:00,
2013-01-11 03:43:00,40.0,27.2,28.77,NE,46,0.0,4.0,60,0.00,,,0.00,VWS V14.01,2013-01-11 11:43:00,
2013-01-11 03:48:00,40.0,26.8,28.77,NNE,29,0.0,4.0,59,0.00,,,0.00,VWS V14.01,2013-01-11 11:48:00,
2013-01-11 03:53:00,41.2,26.7,28.77,North,355,2.0,4.0,56,0.00,,,0.00,VWS V14.01,2013-01-11 11:53:00,
2013-01-11 03:58:00,42.9,27.0,28.77,NW,314,1.0,4.0,53,0.00,,,0.00,VWS V14.01,2013-01-11 11:58:00,
2013-01-11 04:02:00,43.9,27.4,28.77,WNW,294,0.0,3.0,52,0.00,,,0.00,VWS V14.01,2013-01-11 12:02:00,
2013-01-11 04:07:00,44.0,27.5,28.77,WNW,294,0.0,3.0,52,0.00,,,0.00,VWS V14.01,2013-01-11 12:07:00,
2013-01-11 04:12:00,43.1,27.6,28.77,WSW,257,1.0,3.0,54,0.00,,,0.00,VWS V14.01,2013-01-11 12:12:00,
2013-01-11 04:17:00,41.7,27.6,28.77,WSW,257,1.0,3.0,57,0.00,,,0.00,VWS V14.01,2013-01-11 12:17:00,
2013-01-11 04:22:00,40.8,27.6,28.77,WSW,257,0.0,3.0,59,0.00,,,0.00,VWS V14.01,2013-01-11 12:22:00,
2013-01-11 04:27:00,40.5,27.3,28.77,West,259,1.0,3.0,59,0.00,,,0.00,VWS V14.01,2013-01-11 12:27:00,
2013-01-11 04:32:00,41.5,27.4,28.77,NNW,330,0.0,4.0,57,0.00,,,0.00,VWS V14.01,2013-01-11 12:32:00,
2013-01-11 04:37:00,41.2,28.0,28.77,South,184,0.0,4.0,59,0.00,,,0.00,VWS V14.01,2013-01-11 12:37:00,
2013-01-11 04:42:00,40.4,28.0,28.77,South,184,1.0,4.0,61,0.00,,,0.00,VWS V14.01,2013-01-11 12:42:00,
2013-01-11 04:47:00,39.8,27.9,28.77,South,180,0.0,4.0,62,0.00,,,0.00,VWS V14.01,2013-01-11 12:47:00,
2013-01-11 04:52:00,39.5,27.6,28.77,South,180,0.0,4.0,62,0.00,,,0.00,VWS V14.01,2013-01-11 12:52:00,
2013-01-11 04:57:00,39.5,27.6,28.77,South,189,2.0,5.0,62,0.00,,,0.00,VWS V14.01,2013-01-11 12:57:00,
2013-01-11 05:02:00,39.4,27.9,28.77,South,189,0.0,1.0,63,0.00,,,0.00,VWS V14.01,2013-01-11 13:02:00,
2013-01-11 05:07:00,39.3,27.8,28.77,South,189,0.0,2.0,63,0.00,,,0.00,VWS V14.01,2013-01-11 13:07:00,
2013-01-11 05:12:00,39.1,28.0,28.77,SE,144,0.0,5.0,64,0.00,,,0.00,VWS V14.01,2013-01-11 13:12:00,
2013-01-11 05:17:00,38.9,27.8,28.77,SE,144,1.0,5.0,64,0.00,,,0.00,VWS V14.01,2013-01-11 13:17:00,
2013-01-11 05:22:00,39.1,28.0,28.77,SE,140,0.0,5.0,64,0.00,,,0.00,VWS V14.01,2013-01-11 13:22:00,
2013-01-11 05:27:00,39.0,27.9,28.77,SE,140,1.0,5.0,64,0.00,,,0.00,VWS V14.01,2013-01-11 13:27:00,
2013-01-11 05:32:00,38.8,27.7,28.77,SE,140,0.0,1.0,64,0.00,,,0.00,VWS V14.01,2013-01-11 13:32:00,
2013-01-11 05:37:00,38.5,27.8,28.77,SE,140,0.0,1.0,65,0.00,,,0.00,VWS V14.01,2013-01-11 13:37:00,
2013-01-11 05:42:00,38.3,27.6,28.77,East,86,1.0,2.0,65,0.00,,,0.00,VWS V14.01,2013-01-11 13:42:00,
2013-01-11 05:47:00,38.3,27.6,28.77,East,84,1.0,2.0,65,0.00,,,0.00,VWS V14.01,2013-01-11 13:47:00,
2013-01-11 05:52:00,38.3,27.6,28.77,East,82,0.0,3.0,65,0.00,,,0.00,VWS V14.01,2013-01-11 13:52:00,
2013-01-11 05:57:00,38.3,27.6,28.77,NE,49,1.0,3.0,65,0.00,,,0.00,VWS V14.01,2013-01-11 13:57:00,
2013-01-11 06:02:00,38.3,27.6,28.77,NE,50,0.0,1.0,65,0.00,,,0.00,VWS V14.01,2013-01-11 14:02:00,
2013-01-11 06:07:00,38.3,27.2,28.77,NE,51,2.0,4.0,64,0.00,,,0.00,VWS V14.01,2013-01-11 14:07:00,
2013-01-11 06:12:00,38.3,27.2,28.77,ENE,61,0.0,4.0,64,0.00,,,0.00,VWS V14.01,2013-01-11 14:12:00,
2013-01-11 06:17:00,38.3,27.2,28.77,ENE,58,0.0,4.0,64,0.00,,,0.00,VWS V14.01,2013-01-11 14:17:00,
2013-01-11 06:22:00,38.2,27.1,28.77,ENE,59,0.0,4.0,64,0.00,,,0.00,VWS V14.01,2013-01-11 14:22:00,
2013-01-11 06:27:00,38.3,27.2,28.77,ENE,62,0.0,4.0,64,0.00,,,0.00,VWS V14.01,2013-01-11 14:27:00,
2013-01-11 06:32:00,38.3,27.2,28.77,ENE,59,0.0,2.0,64,0.00,,,0.00,VWS V14.01,2013-01-11 14:32:00,
2013-01-11 06:37:00,38.3,27.2,28.77,ENE,59,0.0,3.0,64,0.00,,,0.00,VWS V14.01,2013-01-11 14:37:00,
2013-01-11 06:42:00,38.3,27.2,28.77,ENE,59,1.0,3.0,64,0.00,,,0.00,VWS V14.01,2013-01-11 14:42:00,
2013-01-11 06:47:00,38.1,27.0,28.77,ENE,59,1.0,3.0,64,0.00,,,0.00,VWS V14.01,2013-01-11 14:47:00,
2013-01-11 06:52:00,37.8,27.1,28.77,ENE,59,0.0,3.0,65,0.00,,,0.00,VWS V14.01,2013-01-11 14:52:00,
2013-01-11 06:57:00,37.4,26.7,28.77,NE,51,3.0,4.0,65,0.00,,,0.00,VWS V14.01,2013-01-11 14:57:00,
2013-01-11 07:02:00,37.2,26.5,28.77,NE,53,0.0,2.0,65,0.00,,,0.00,VWS V14.01,2013-01-11 15:02:00,
2013-01-11 07:07:00,37.0,26.3,28.77,NE,55,3.0,3.0,65,0.00,,,0.00,VWS V14.01,2013-01-11 15:07:00,
2013-01-11 07:12:00,37.0,26.7,28.77,ENE,57,0.0,3.0,66,0.00,,,0.00,VWS V14.01,2013-01-11 15:12:00,
2013-01-11 07:17:00,37.0,26.7,28.77,ENE,57,0.0,3.0,66,0.00,,,0.00,VWS V14.01,2013-01-11 15:17:00,
2013-01-11 07:22:00,37.1,26.8,28.77,ENE,58,0.0,3.0,66,0.00,,,0.00,VWS V14.01,2013-01-11 15:22:00,
2013-01-11 07:27:00,37.0,26.7,28.77,ENE,57,0.0,3.0,66,0.00,,,0.00,VWS V14.01,2013-01-11 15:27:00,
2013-01-11 07:32:00,37.0,26.7,28.77,ENE,58,0.0,2.0,66,0.00,,,0.00,VWS V14.01,2013-01-11 15:32:00,
2013-01-11 07:37:00,37.2,26.9,28.77,NE,54,3.0,3.0,66,0.00,,,0.00,VWS V14.01,2013-01-11 15:37:00,
2013-01-11 07:42:00,37.6,26.9,28.77,NE,53,0.0,3.0,65,0.00,,,0.00,VWS V14.01,2013-01-11 15:42:00,
2013-01-11 07:47:00,38.0,27.3,28.77,NE,56,2.0,3.0,65,0.00,,,0.00,VWS V14.01,2013-01-11 15:47:00,
2013-01-11 07:52:00,38.4,27.3,28.77,ENE,63,4.0,4.0,64,0.00,,,0.00,VWS V14.01,2013-01-11 15:52:00,
2013-01-11 07:57:00,39.0,27.9,31.39,ENE,69,2.0,4.0,64,0.00,,,0.00,VWS V14.01,2013-01-11 15:57:00,
2013-01-11 08:02:00,39.5,28.0,31.39,NE,56,3.0,3.0,63,0.00,,,0.00,VWS V14.01,2013-01-11 16:02:00,
2013-01-11 08:07:00,40.2,28.2,31.39,ENE,62,1.0,3.0,62,0.00,,,0.00,VWS V14.01,2013-01-11 16:07:00,
2013-01-11 08:12:00,41.1,28.3,31.39,ENE,65,3.0,5.0,60,0.00,,,0.00,VWS V14.01,2013-01-11 16:12:00,
2013-01-11 08:17:00,42.0,28.7,31.39,ENE,66,5.0,5.0,59,0.00,,,0.00,VWS V14.01,2013-01-11 16:17:00,
2013-01-11 08:22:00,42.7,29.0,31.39,NE,43,4.0,6.0,58,0.00,,,0.00,VWS V14.01,2013-01-11 16:22:00,
2013-01-11 08:27:00,43.4,29.2,31.39,ENE,65,2.0,6.0,57,0.00,,,0.00,VWS V14.01,2013-01-11 16:27:00,
2013-01-11 08:32:00,44.1,29.0,31.39,ENE,65,6.0,6.0,55,0.00,,,0.00,VWS V14.01,2013-01-11 16:32:00,
2013-01-11 08:37:00,44.8,29.2,31.39,ENE,65,3.0,6.0,54,0.00,,,0.00,VWS V14.01,2013-01-11 16:37:00,
2013-01-11 08:42:00,45.4,29.7,31.39,ENE,77,3.0,6.0,54,0.00,,,0.00,VWS V14.01,2013-01-11 16:42:00,
2013-01-11 08:47:00,45.7,29.6,31.39,ENE,71,3.0,7.0,53,0.00,,,0.00,VWS V14.01,2013-01-11 16:47:00,
2013-01-11 08:52:00,46.1,29.5,31.39,ENE,62,2.0,7.0,52,0.00,,,0.00,VWS V14.01,2013-01-11 16:52:00,
2013-01-11 08:57:00,46.4,29.8,31.39,ENE,66,3.0,7.0,52,0.00,,,0.00,VWS V14.01,2013-01-11 16:57:00,
2013-01-11 09:02:00,46.4,29.3,31.39,East,90,6.0,6.0,51,0.00,,,0.00,VWS V14.01,2013-01-11 17:02:00,
2013-01-11 09:07:00,46.6,29.0,31.39,ENE,58,4.0,6.0,50,0.00,,,0.00,VWS V14.01,2013-01-11 17:07:00,
2013-01-11 09:12:00,46.9,29.7,31.39,ENE,77,4.0,6.0,51,0.00,,,0.00,VWS V14.01,2013-01-11 17:12:00,
2013-01-11 09:17:00,46.9,29.2,31.39,East,80,6.0,7.0,50,0.00,,,0.00,VWS V14.01,2013-01-11 17:17:00,
2013-01-11 09:22:00,46.9,28.8,31.39,ENE,76,4.0,7.0,49,0.00,,,0.00,VWS V14.01,2013-01-11 17:22:00,
2013-01-11 09:27:00,47.3,29.1,31.39,ENE,71,2.0,7.0,49,0.00,,,0.00,VWS V14.01,2013-01-11 17:27:00,
2013-01-11 09:32:00,47.6,28.9,31.39,ENE,78,3.0,6.0,48,0.00,,,0.00,VWS V14.01,2013-01-11 17:32:00,
2013-01-11 09:37:00,47.5,29.3,31.39,ENE,69,3.0,7.0,49,0.00,,,0.00,VWS V14.01,2013-01-11 17:37:00,
2013-01-11 09:42:00,47.6,29.4,31.39,East,82,3.0,7.0,49,0.00,,,0.00,VWS V14.01,2013-01-11 17:42:00,
2013-01-11 09:47:00,47.6,28.9,31.39,ENE,67,6.0,8.0,48,0.00,,,0.00,VWS V14.01,2013-01-11 17:47:00,
2013-01-11 09:52:00,48.1,29.4,31.39,ENE,68,3.0,8.0,48,0.00,,,0.00,VWS V14.01,2013-01-11 17:52:00,
2013-01-11 09:57:00,48.7,29.9,31.39,ENE,71,0.0,8.0,48,0.00,,,0.00,VWS V14.01,2013-01-11 17:57:00,
2013-01-11 10:02:00,49.6,30.2,31.39,ENE,77,2.0,3.0,47,0.00,,,0.00,VWS V14.01,2013-01-11 18:02:00,
2013-01-11 10:07:00,49.5,29.1,31.39,ENE,67,2.0,5.0,45,0.00,,,0.00,VWS V14.01,2013-01-11 18:07:00,
2013-01-11 10:12:00,49.6,29.7,31.39,ESE,116,2.0,5.0,46,0.00,,,0.00,VWS V14.01,2013-01-11 18:12:00,
2013-01-11 10:17:00,50.3,29.2,31.39,East,100,0.0,5.0,44,0.00,,,0.00,VWS V14.01,2013-01-11 18:17:00,
2013-01-11 10:22:00,50.5,29.4,31.39,East,99,0.0,5.0,44,0.00,,,0.00,VWS V14.01,2013-01-11 18:22:00,
2013-01-11 10:27:00,50.8,29.7,31.39,East,97,2.0,5.0,44,0.00,,,0.00,VWS V14.01,2013-01-11 18:27:00,
2013-01-11 10:32:00,51.1,30.0,31.39,East,84,1.0,2.0,44,0.00,,,0.00,VWS V14.01,2013-01-11 18:32:00,
2013-01-11 10:37:00,51.5,30.3,31.39,East,82,1.0,3.0,44,0.00,,,0.00,VWS V14.01,2013-01-11 18:37:00,
2013-01-11 10:42:00,51.9,30.7,31.39,East,84,2.0,3.0,44,0.00,,,0.00,VWS V14.01,2013-01-11 18:42:00,
2013-01-11 10:47:00,52.1,30.3,31.39,South,184,0.0,5.0,43,0.00,,,0.00,VWS V14.01,2013-01-11 18:47:00,
2013-01-11 10:52:00,52.3,30.5,31.39,SSW,200,1.0,5.0,43,0.00,,,0.00,VWS V14.01,2013-01-11 18:52:00,
2013-01-11 10:57:00,52.3,31.0,31.39,SSE,165,4.0,6.0,44,0.00,,,0.00,VWS V14.01,2013-01-11 18:57:00,
2013-01-11 11:02:00,52.2,30.4,31.39,South,187,1.0,5.0,43,0.00,,,0.00,VWS V14.01,2013-01-11 19:02:00,
2013-01-11 11:07:00,52.7,30.9,31.39,ESE,123,2.0,5.0,43,0.00,,,0.00,VWS V14.01,2013-01-11 19:07:00,
2013-01-11 11:12:00,53.0,31.1,31.39,ESE,123,4.0,6.0,43,0.00,,,0.00,VWS V14.01,2013-01-11 19:12:00,
2013-01-11 11:17:00,52.9,31.6,31.39,SSE,159,2.0,6.0,44,0.00,,,0.00,VWS V14.01,2013-01-11 19:17:00,
2013-01-11 11:22:00,52.8,31.5,31.39,SSE,161,0.0,6.0,44,0.00,,,0.00,VWS V14.01,2013-01-11 19:22:00,
2013-01-11 11:27:00,53.0,31.7,31.39,WSW,244,5.0,6.0,44,0.00,,,0.00,VWS V14.01,2013-01-11 19:27:00,
2013-01-11 11:32:00,52.2,31.0,31.39,WSW,248,1.0,7.0,44,0.00,,,0.00,VWS V14.01,2013-01-11 19:32:00,
2013-01-11 11:37:00,52.2,31.0,31.39,SSW,209,3.0,8.0,44,0.00,,,0.00,VWS V14.01,2013-01-11 19:37:00,
2013-01-11 11:42:00,52.2,31.0,31.39,SW,217,3.0,8.0,44,0.00,,,0.00,VWS V14.01,2013-01-11 19:42:00,
2013-01-11 11:47:00,52.2,30.4,31.39,SW,224,0.0,8.0,43,0.00,,,0.00,VWS V14.01,2013-01-11 19:47:00,
2013-01-11 11:52:00,52.4,31.1,31.39,SW,236,5.0,8.0,44,0.00,,,0.00,VWS V14.01,2013-01-11 19:52:00,
2013-01-11 11:57:00,52.1,32.0,31.39,WSW,242,7.0,10.0,46,0.00,,,0.00,VWS V14.01,2013-01-11 19:57:00,
2013-01-11 12:02:00,52.6,31.3,31.39,West,261,4.0,6.0,44,0.00,,,0.00,VWS V14.01,2013-01-11 20:02:00,
2013-01-11 12:07:00,52.5,31.8,31.39,SW,221,4.0,7.0,45,0.00,,,0.00,VWS V14.01,2013-01-11 20:07:00,
2013-01-11 12:12:00,53.0,32.2,31.39,West,262,5.0,7.0,45,0.00,,,0.00,VWS V14.01,2013-01-11 20:12:00,
2013-01-11 12:17:00,52.4,30.0,31.39,West,271,4.0,9.0,42,0.00,,,0.00,VWS V14.01,2013-01-11 20:17:00,
2013-01-11 12:22:00,52.3,32.2,31.39,SW,229,1.0,9.0,46,0.00,,,0.00,VWS V14.01,2013-01-11 20:22:00,
2013-01-11 12:27:00,52.8,31.5,31.39,West,261,3.0,11.0,44,0.00,,,0.00,VWS V14.01,2013-01-11 20:27:00,
2013-01-11 12:32:00,53.1,30.6,31.39,WSW,257,5.0,7.0,42,0.00,,,0.00,VWS V14.01,2013-01-11 20:32:00,
2013-01-11 12:37:00,53.3,30.8,31.39,SW,215,5.0,8.0,42,0.00,,,0.00,VWS V14.01,2013-01-11 20:37:00,
2013-01-11 12:42:00,53.1,30.6,31.39,SW,233,4.0,9.0,42,0.00,,,0.00,VWS V14.01,2013-01-11 20:42:00,
2013-01-11 12:47:00,53.1,32.3,31.39,West,272,4.0,9.0,45,0.00,,,0.00,VWS V14.01,2013-01-11 20:47:00,
2013-01-11 12:52:00,53.0,33.3,31.39,WSW,244,4.0,11.0,47,0.00,,,0.00,VWS V14.01,2013-01-11 20:52:00,
2013-01-11 12:57:00,53.0,34.4,17.36,SW,219,2.0,11.0,49,0.00,,,0.00,VWS V14.01,2013-01-11 20:57:00,
2013-01-11 13:02:00,52.7,34.6,17.36,SW,229,9.0,10.0,50,0.00,,,0.00,VWS V14.01,2013-01-11 21:02:00,
2013-01-11 13:07:00,52.8,35.2,17.36,SW,235,2.0,10.0,51,0.00,,,0.00,VWS V14.01,2013-01-11 21:07:00,
2013-01-11 13:12:00,53.2,35.1,17.36,WSW,248,3.0,10.0,50,0.00,,,0.00,VWS V14.01,2013-01-11 21:12:00,
2013-01-11 13:17:00,52.7,34.6,17.36,West,269,8.0,10.0,50,0.00,,,0.00,VWS V14.01,2013-01-11 21:17:00,
2013-01-11 13:22:00,52.5,32.3,17.36,WNW,292,6.0,10.0,46,0.00,,,0.00,VWS V14.01,2013-01-11 21:22:00,
2013-01-11 13:27:00,52.7,33.0,17.36,SSW,213,5.0,10.0,47,0.00,,,0.00,VWS V14.01,2013-01-11 21:27:00,
2013-01-11 13:32:00,53.4,32.6,17.36,West,277,3.0,11.0,45,0.00,,,0.00,VWS V14.01,2013-01-11 21:32:00,
2013-01-11 13:37:00,53.4,32.6,17.36,WSW,256,1.0,11.0,45,0.00,,,0.00,VWS V14.01,2013-01-11 21:37:00,
2013-01-11 13:42:00,54.1,33.8,17.36,WSW,255,5.0,11.0,46,0.00,,,0.00,VWS V14.01,2013-01-11 21:42:00,
2013-01-11 13:47:00,54.0,33.7,17.36,SW,235,5.0,11.0,46,0.00,,,0.00,VWS V14.01,2013-01-11 21:47:00,
2013-01-11 13:52:00,54.3,33.4,31.31,WSW,240,7.0,11.0,45,0.00,,,0.00,VWS V14.01,2013-01-11 21:52:00,
2013-01-11 13:57:00,54.1,33.2,31.31,WSW,248,7.0,13.0,45,0.00,,,0.00,VWS V14.01,2013-01-11 21:57:00,
2013-01-11 14:02:00,53.8,33.5,31.31,WSW,254,6.0,14.0,46,0.00,,,0.00,VWS V14.01,2013-01-11 22:02:00,
2013-01-11 14:07:00,54.2,33.9,31.31,WSW,248,7.0,14.0,46,0.00,,,0.00,VWS V14.01,2013-01-11 22:07:00,
2013-01-11 14:12:00,54.1,33.8,31.31,West,260,9.0,14.0,46,0.00,,,0.00,VWS V14.01,2013-01-11 22:12:00,
2013-01-11 14:17:00,54.2,34.4,31.31,West,259,5.0,17.0,47,0.00,,,0.00,VWS V14.01,2013-01-11 22:17:00,
2013-01-11 14:22:00,54.4,34.6,31.31,NW,319,6.0,17.0,47,0.00,,,0.00,VWS V14.01,2013-01-11 22:22:00,
2013-01-11 14:27:00,55.1,35.2,31.31,West,261,2.0,17.0,47,0.00,,,0.00,VWS V14.01,2013-01-11 22:27:00,
2013-01-11 14:32:00,56.0,33.8,31.31,NW,305,3.0,9.0,43,0.00,,,0.00,VWS V14.01,2013-01-11 22:32:00,
2013-01-11 14:37:00,55.9,30.0,31.31,WNW,302,7.0,14.0,37,0.00,,,0.00,VWS V14.01,2013-01-11 22:37:00,
2013-01-11 14:42:00,56.2,28.9,31.31,WNW,290,7.0,16.0,35,0.00,,,0.00,VWS V14.01,2013-01-11 22:42:00,
2013-01-11 14:47:00,56.4,29.1,31.31,WNW,286,2.0,16.0,35,0.00,,,0.00,VWS V14.01,2013-01-11 22:47:00,
2013-01-11 14:52:00,56.4,29.1,31.31,WNW,288,6.0,16.0,35,0.00,,,0.00,VWS V14.01,2013-01-11 22:52:00,
2013-01-11 14:57:00,56.2,28.2,31.31,NW,309,4.0,16.0,34,0.00,,,0.00,VWS V14.01,2013-01-11 22:57:00,
2013-01-11 15:02:00,56.2,28.2,31.31,NW,309,5.0,13.0,34,0.00,,,0.00,VWS V14.01,2013-01-11 23:02:00,
2013-01-11 15:07:00,55.8,27.1,31.31,WNW,302,3.0,17.0,33,0.00,,,0.00,VWS V14.01,2013-01-11 23:07:00,
2013-01-11 15:12:00,55.8,27.1,31.31,WNW,292,5.0,17.0,33,0.00,,,0.00,VWS V14.01,2013-01-11 23:12:00,
2013-01-11 15:17:00,56.0,27.3,31.31,NW,309,6.0,17.0,33,0.00,,,0.00,VWS V14.01,2013-01-11 23:17:00,
2013-01-11 15:22:00,55.8,26.4,31.31,WNW,294,8.0,19.0,32,0.00,,,0.00,VWS V14.01,2013-01-11 23:22:00,
2013-01-11 15:27:00,55.7,26.3,31.31,NW,319,6.0,19.0,32,0.00,,,0.00,VWS V14.01,2013-01-11 23:27:00,
2013-01-11 15:32:00,55.7,25.5,31.31,NNW,338,12.0,22.0,31,0.00,,,0.00,VWS V14.01,2013-01-11 23:32:00,
2013-01-11 15:37:00,55.3,25.2,31.31,NW,304,11.0,22.0,31,0.00,,,0.00,VWS V14.01,2013-01-11 23:37:00,
2013-01-11 15:42:00,55.1,25.8,31.31,NNW,332,13.0,22.0,32,0.00,,,0.00,VWS V14.01,2013-01-11 23:42:00,
2013-01-11 15:47:00,55.0,25.7,31.31,NW,325,13.0,22.0,32,0.00,,,0.00,VWS V14.01,2013-01-11 23:47:00,
2013-01-11 15:52:00,55.1,26.5,31.31,NNW,343,14.0,22.0,33,0.00,,,0.00,VWS V14.01,2013-01-11 23:52:00,
2013-01-11 15:57:00,54.9,25.6,31.31,NNW,338,13.0,22.0,32,0.00,,,0.00,VWS V14.01,2013-01-11 23:57:00,
2013-01-11 16:02:00,55.0,26.5,31.31,NW,315,6.0,12.0,33,0.00,,,0.00,VWS V14.01,2013-01-12 00:02:00,
2013-01-11 16:07:00,54.8,25.5,31.31,NW,318,9.0,18.0,32,0.00,,,0.00,VWS V14.01,2013-01-12 00:07:00,
2013-01-11 16:12:00,54.7,25.4,31.31,NW,324,4.0,18.0,32,0.00,,,0.00,VWS V14.01,2013-01-12 00:12:00,
2013-01-11 16:17:00,54.3,25.1,31.31,NNW,339,9.0,18.0,32,0.00,,,0.00,VWS V14.01,2013-01-12 00:17:00,
2013-01-11 16:22:00,54.1,24.9,31.31,NW,321,14.0,18.0,32,0.00,,,0.00,VWS V14.01,2013-01-12 00:22:00,
2013-01-11 16:27:00,53.9,24.7,31.31,NNW,331,7.0,18.0,32,0.00,,,0.00,VWS V14.01,2013-01-12 00:27:00,
2013-01-11 16:32:00,53.8,24.6,31.31,NW,325,5.0,10.0,32,0.00,,,0.00,VWS V14.01,2013-01-12 00:32:00,
2013-01-11 16:37:00,53.6,24.5,31.31,NNW,336,8.0,13.0,32,0.00,,,0.00,VWS V14.01,2013-01-12 00:37:00,
2013-01-11 16:42:00,53.4,24.3,31.31,NW,321,12.0,13.0,32,0.00,,,0.00,VWS V14.01,2013-01-12 00:42:00,
2013-01-11 16:47:00,53.3,24.2,31.31,NW,313,9.0,16.0,32,0.00,,,0.00,VWS V14.01,2013-01-12 00:47:00,
2013-01-11 16:52:00,53.1,24.8,31.31,NW,322,4.0,16.0,33,0.00,,,0.00,VWS V14.01,2013-01-12 00:52:00,
2013-01-11 16:57:00,52.8,24.5,31.31,NW,312,8.0,16.0,33,0.00,,,0.00,VWS V14.01,2013-01-12 00:57:00,
2013-01-11 17:02:00,52.6,24.3,31.31,NNW,328,11.0,11.0,33,0.00,,,0.00,VWS V14.01,2013-01-12 01:02:00,
2013-01-11 17:07:00,52.6,24.3,31.31,North,355,6.0,12.0,33,0.00,,,0.00,VWS V14.01,2013-01-12 01:07:00,
2013-01-11 17:12:00,52.3,24.8,31.31,NNW,338,4.0,12.0,34,0.00,,,0.00,VWS V14.01,2013-01-12 01:12:00,
2013-01-11 17:17:00,52.2,24.0,31.31,NW,323,8.0,15.0,33,0.00,,,0.00,VWS V14.01,2013-01-12 01:17:00,
2013-01-11 17:22:00,52.3,23.3,31.31,NNW,336,9.0,15.0,32,0.00,,,0.00,VWS V14.01,2013-01-12 01:22:00,
2013-01-11 17:27:00,52.1,23.9,31.31,NNW,344,7.0,15.0,33,0.00,,,0.00,VWS V14.01,2013-01-12 01:27:00,
2013-01-11 17:32:00,52.0,23.8,31.31,North,355,5.0,9.0,33,0.00,,,0.00,VWS V14.01,2013-01-12 01:32:00,
2013-01-11 17:37:00,51.9,24.4,31.31,NNW,342,6.0,9.0,34,0.00,,,0.00,VWS V14.01,2013-01-12 01:37:00,
2013-01-11 17:42:00,51.6,24.2,31.31,NNW,340,4.0,9.0,34,0.00,,,0.00,VWS V14.01,2013-01-12 01:42:00,
2013-01-11 17:47:00,51.3,24.6,31.31,NNW,327,2.0,9.0,35,0.00,,,0.00,VWS V14.01,2013-01-12 01:47:00,
2013-01-11 17:52:00,51.0,25.0,31.31,NNW,333,2.0,9.0,36,0.00,,,0.00,VWS V14.01,2013-01-12 01:52:00,
2013-01-11 17:57:00,50.8,25.5,31.31,NNW,346,2.0,9.0,37,0.00,,,0.00,VWS V14.01,2013-01-12 01:57:00,
2013-01-11 18:02:00,50.7,25.4,31.31,NNW,333,6.0,8.0,37,0.00,,,0.00,VWS V14.01,2013-01-12 02:02:00,
2013-01-11 18:07:00,50.5,25.2,31.31,North,355,3.0,8.0,37,0.00,,,0.00,VWS V14.01,2013-01-12 02:07:00,
2013-01-11 18:12:00,50.3,25.7,31.31,North,5,3.0,8.0,38,0.00,,,0.00,VWS V14.01,2013-01-12 02:12:00,
2013-01-11 18:17:00,50.0,25.4,31.31,North,5,0.0,8.0,38,0.00,,,0.00,VWS V14.01,2013-01-12 02:17:00,
2013-01-11 18:22:00,49.6,26.3,31.31,North,5,0.0,8.0,40,0.00,,,0.00,VWS V14.01,2013-01-12 02:22:00,
2013-01-11 18:27:00,49.2,25.9,31.31,North,5,2.0,8.0,40,0.00,,,0.00,VWS V14.01,2013-01-12 02:27:00,
2013-01-11 18:32:00,49.2,25.9,31.31,North,9,2.0,4.0,40,0.00,,,0.00,VWS V14.01,2013-01-12 02:32:00,
2013-01-11 18:37:00,49.2,25.9,31.31,North,9,2.0,4.0,40,0.00,,,0.00,VWS V14.01,2013-01-12 02:37:00,
2013-01-11 18:42:00,48.9,26.2,31.31,North,360,1.0,4.0,41,0.00,,,0.00,VWS V14.01,2013-01-12 02:42:00,
2013-01-11 18:47:00,48.7,26.6,31.31,North,360,2.0,4.0,42,0.00,,,0.00,VWS V14.01,2013-01-12 02:47:00,
2013-01-11 18:51:00,48.4,26.4,31.31,North,360,2.0,4.0,42,0.00,,,0.00,VWS V14.01,2013-01-12 02:51:00,
2013-01-11 18:56:00,48.1,26.7,31.31,North,360,3.0,4.0,43,0.00,,,0.00,VWS V14.01,2013-01-12 02:56:00,
2013-01-11 19:02:00,48.2,26.2,31.31,NNW,340,3.0,4.0,42,0.00,,,0.00,VWS V14.01,2013-01-12 03:02:00,
2013-01-11 19:07:00,48.2,26.8,31.31,NNW,340,3.0,4.0,43,0.00,,,0.00,VWS V14.01,2013-01-12 03:07:00,
2013-01-11 19:12:00,48.1,26.7,31.31,NNW,338,1.0,4.0,43,0.00,,,0.00,VWS V14.01,2013-01-12 03:12:00,
2013-01-11 19:17:00,48.1,27.2,31.31,NNW,337,3.0,4.0,44,0.00,,,0.00,VWS V14.01,2013-01-12 03:17:00,
2013-01-11 19:22:00,48.0,27.1,31.31,NNW,337,0.0,4.0,44,0.00,,,0.00,VWS V14.01,2013-01-12 03:22:00,
2013-01-11 19:27:00,47.8,27.0,31.31,NNW,337,1.0,4.0,44,0.00,,,0.00,VWS V14.01,2013-01-12 03:27:00,
2013-01-11 19:32:00,47.7,26.9,31.31,NNW,337,1.0,2.0,44,0.00,,,0.00,VWS V14.01,2013-01-12 03:32:00,
2013-01-11 19:37:00,47.5,27.2,31.31,NNW,337,1.0,3.0,45,0.00,,,0.00,VWS V14.01,2013-01-12 03:37:00,
2013-01-11 19:42:00,47.4,27.1,31.31,NNW,337,2.0,3.0,45,0.00,,,0.00,VWS V14.01,2013-01-12 03:42:00,
2013-01-11 19:47:00,47.3,28.1,31.31,NNW,337,0.0,3.0,47,0.00,,,0.00,VWS V14.01,2013-01-12 03:47:00,
2013-01-11 19:52:00,47.2,27.0,31.31,NNW,330,3.0,4.0,45,0.00,,,0.00,VWS V14.01,2013-01-12 03:52:00,
2013-01-11 19:57:00,47.0,26.8,31.31,NNW,327,2.0,4.0,45,0.00,,,0.00,VWS V14.01,2013-01-12 03:57:00,
2013-01-11 20:02:00,46.5,26.9,31.31,NNW,327,0.0,2.0,46,0.00,,,0.00,VWS V14.01,2013-01-12 04:02:00,
2013-01-11 20:07:00,46.2,27.1,31.31,NNW,327,0.0,2.0,47,0.00,,,0.00,VWS V14.01,2013-01-12 04:07:00,
2013-01-11 20:12:00,46.1,27.5,31.31,NNW,327,2.0,3.0,48,0.00,,,0.00,VWS V14.01,2013-01-12 04:12:00,
2013-01-11 20:17:00,46.2,27.1,31.31,NNW,327,3.0,4.0,47,0.00,,,0.00,VWS V14.01,2013-01-12 04:17:00,
2013-01-11 20:22:00,46.4,27.3,31.31,North,351,4.0,4.0,47,0.00,,,0.00,VWS V14.01,2013-01-12 04:22:00,
2013-01-11 20:27:00,46.5,27.4,31.30,North,355,3.0,4.0,47,0.00,,,0.00,VWS V14.01,2013-01-12 04:27:00,
2013-01-11 20:32:00,46.5,27.4,31.30,North,350,2.0,6.0,47,0.00,,,0.00,VWS V14.01,2013-01-12 04:32:00,
2013-01-11 20:37:00,46.7,27.0,31.38,North,355,4.0,6.0,46,0.00,,,0.00,VWS V14.01,2013-01-12 04:37:00,
2013-01-11 20:41:00,46.8,27.6,31.39,North,355,3.0,6.0,47,0.00,,,0.00,VWS V14.01,2013-01-12 04:41:00,
2013-01-11 20:46:00,46.6,27.5,31.39,North,355,3.0,6.0,47,0.00,,,0.00,VWS V14.01,2013-01-12 04:46:00,
2013-01-11 20:51:00,46.4,27.3,31.39,North,355,3.0,6.0,47,0.00,,,0.00,VWS V14.01,2013-01-12 04:51:00,
2013-01-11 20:56:00,46.6,27.5,31.39,NNW,348,2.0,6.0,47,0.00,,,0.00,VWS V14.01,2013-01-12 04:56:00,
2013-01-11 21:00:00,46.7,27.6,31.39,NNW,347,5.0,5.0,47,0.00,,,0.00,VWS V14.01,2013-01-12 05:00:00,
2013-01-11 21:01:00,46.8,27.6,31.39,North,355,1.0,6.0,47,0.00,,,0.00,VWS V14.01,2013-01-12 05:01:00,
2013-01-11 21:02:00,46.8,27.6,31.39,North,355,3.0,6.0,47,0.00,,,0.00,VWS V14.01,2013-01-12 05:02:00,
2013-01-11 21:07:00,46.7,28.1,23.13,North,355,0.0,6.0,48,0.00,,,0.00,VWS V14.01,2013-01-12 05:07:00,
2013-01-11 21:12:00,46.3,27.7,23.13,North,355,1.0,6.0,48,0.00,,,0.00,VWS V14.01,2013-01-12 05:12:00,
2013-01-11 21:17:00,45.6,28.0,23.13,North,355,0.0,6.0,50,0.00,,,0.00,VWS V14.01,2013-01-12 05:17:00,
2013-01-11 21:22:00,44.9,27.9,23.13,North,355,0.0,6.0,51,0.00,,,0.00,VWS V14.01,2013-01-12 05:22:00,
2013-01-11 21:27:00,44.3,27.8,23.13,South,178,5.0,7.0,52,0.00,,,0.00,VWS V14.01,2013-01-12 05:27:00,
2013-01-11 21:32:00,44.3,27.8,23.13,SSW,208,2.0,4.0,52,0.00,,,0.00,VWS V14.01,2013-01-12 05:32:00,
2013-01-11 21:37:00,44.3,27.3,23.13,ESE,117,4.0,5.0,51,0.00,,,0.00,VWS V14.01,2013-01-12 05:37:00,
2013-01-11 21:42:00,44.3,27.3,23.13,SSE,153,4.0,5.0,51,0.00,,,0.00,VWS V14.01,2013-01-12 05:42:00,
2013-01-11 21:47:00,44.4,27.4,23.13,ESE,119,1.0,5.0,51,0.00,,,0.00,VWS V14.01,2013-01-12 05:47:00,
2013-01-11 21:52:00,44.3,26.9,23.13,ENE,78,0.0,5.0,50,0.00,,,0.00,VWS V14.01,2013-01-12 05:52:00,
2013-01-11 21:57:00,44.3,26.9,23.13,East,101,2.0,5.0,50,0.00,,,0.00,VWS V14.01,2013-01-12 05:57:00,
2013-01-11 22:02:00,44.7,26.7,23.13,East,82,3.0,3.0,49,0.00,,,0.00,VWS V14.01,2013-01-12 06:02:00,
2013-01-11 22:07:00,44.9,26.9,23.13,East,94,0.0,6.0,49,0.00,,,0.00,VWS V14.01,2013-01-12 06:07:00,
2013-01-11 22:12:00,45.0,27.0,23.13,ENE,74,1.0,6.0,49,0.00,,,0.00,VWS V14.01,2013-01-12 06:12:00,
2013-01-11 22:17:00,45.0,27.0,23.13,ENE,59,2.0,6.0,49,0.00,,,0.00,VWS V14.01,2013-01-12 06:17:00,
2013-01-11 22:22:00,45.1,26.6,23.13,ENE,65,6.0,8.0,48,0.00,,,0.00,VWS V14.01,2013-01-12 06:22:00,
2013-01-11 22:27:00,45.0,27.0,23.13,East,86,0.0,8.0,49,0.00,,,0.00,VWS V14.01,2013-01-12 06:27:00,
2013-01-11 22:32:00,44.8,26.8,23.13,East,80,3.0,5.0,49,0.00,,,0.00,VWS V14.01,2013-01-12 06:32:00,
2013-01-11 22:37:00,44.5,26.5,23.13,East,88,6.0,6.0,49,0.00,,,0.00,VWS V14.01,2013-01-12 06:37:00,
2013-01-11 22:42:00,44.5,27.0,23.13,ENE,70,4.0,6.0,50,0.00,,,0.00,VWS V14.01,2013-01-12 06:42:00,
2013-01-11 22:47:00,44.6,26.6,23.13,ENE,69,5.0,10.0,49,0.00,,,0.00,VWS V14.01,2013-01-12 06:47:00,
2013-01-11 22:52:00,44.7,26.7,23.13,ENE,59,3.0,10.0,49,0.00,,,0.00,VWS V14.01,2013-01-12 06:52:00,
2013-01-11 22:57:00,44.6,27.1,23.13,NE,56,3.0,10.0,50,0.00,,,0.00,VWS V14.01,2013-01-12 06:57:00,
2013-01-11 23:02:00,44.7,27.2,23.13,ENE,65,4.0,7.0,50,0.00,,,0.00,VWS V14.01,2013-01-12 07:02:00,
2013-01-11 23:07:00,44.2,27.2,23.13,ENE,71,2.0,7.0,51,0.00,,,0.00,VWS V14.01,2013-01-12 07:07:00,
2013-01-11 23:12:00,43.8,27.3,23.13,ENE,64,0.0,7.0,52,0.00,,,0.00,VWS V14.01,2013-01-12 07:12:00,
2013-01-11 23:17:00,43.5,27.1,23.13,NE,56,2.0,7.0,52,0.00,,,0.00,VWS V14.01,2013-01-12 07:17:00,
2013-01-11 23:22:00,43.2,27.2,23.13,NE,55,1.0,7.0,53,0.00,,,0.00,VWS V14.01,2013-01-12 07:22:00,
2013-01-11 23:27:00,42.9,27.4,23.13,NE,55,0.0,7.0,54,0.00,,,0.00,VWS V14.01,2013-01-12 07:27:00,
2013-01-11 23:32:00,42.4,27.4,23.13,NE,55,1.0,1.0,55,0.00,,,0.00,VWS V14.01,2013-01-12 07:32:00,
2013-01-11 23:37:00,42.0,27.5,23.13,NE,55,1.0,2.0,56,0.00,,,0.00,VWS V14.01,2013-01-12 07:37:00,
2013-01-11 23:42:00,41.8,27.7,23.13,NE,55,0.0,2.0,57,0.00,,,0.00,VWS V14.01,2013-01-12 07:42:00,
2013-01-11 23:47:00,41.4,27.3,23.13,ENE,59,2.0,3.0,57,0.00,,,0.00,VWS V14.01,2013-01-12 07:47:00,
2013-01-11 23:52:00,41.4,27.3,23.13,ENE,59,1.0,3.0,57,0.00,,,0.00,VWS V14.01,2013-01-12 07:52:00,
2013-01-11 23:57:00,41.2,27.1,23.13,ENE,59,0.0,3.0,57,0.00,,,0.00,VWS V14.01,2013-01-12 07:57:00,